This is the latest recevied weather packets stored in our database for station/object W5GBS-9. If no packets are shown the sender has not sent any weather packets the latest 10 day(s).
| Time | Temp. | Humidity | Pressure | Rain* | Wind** | Luminosity | Snow |
|---|---|---|---|---|---|---|---|
| 1777518311 | 18.33° C | 100% | 1016.3 hPa | 2.29 mm | - | - | - |
| 1777517589 | 18.33° C | 100% | 1016.8 hPa | 6.35 mm | - | - | - |
| 1777516869 | 18.33° C | 100% | 1016.8 hPa | 6.35 mm | - | - | - |
| 1777516148 | 18.33° C | 100% | 1016.7 hPa | 6.35 mm | - | - | - |
| 1777515429 | 18.33° C | 100% | 1017 hPa | 6.1 mm | - | - | - |
| 1777514707 | 18.89° C | 100% | 1016.3 hPa | 4.06 mm | - | - | - |
| 1777513988 | 20° C | 100% | 1017.2 hPa | 0 mm | - | - | - |
| 1777513266 | 21.67° C | 100% | 1016 hPa | 0 mm | - | - | - |
| 1777512547 | 21.11° C | 100% | 1014.8 hPa | 0 mm | - | - | - |
| 1777512546 | 21.11° C | 100% | 1014.8 hPa | 0 mm | - | - | - |
| 1777511825 | 21.11° C | 100% | 1014.9 hPa | 0 mm | - | - | - |
| 1777511104 | 21.67° C | 100% | 1014.8 hPa | 0 mm | - | - | - |
| 1777510384 | 22.22° C | 100% | 1015.2 hPa | 0 mm | - | - | - |
| 1777509662 | 22.22° C | 100% | 1016 hPa | 0 mm | - | - | - |
| 1777508942 | 22.78° C | 100% | 1015.8 hPa | 0 mm | - | - | - |
| 1777508222 | 23.33° C | 100% | 1014.7 hPa | 0 mm | - | - | - |
| 1777507501 | 24.44° C | 100% | 1014.4 hPa | 0 mm | - | - | - |
| 1777506780 | 25.56° C | 100% | 1014.5 hPa | 0 mm | - | - | - |
| 1777506059 | 26.67° C | 100% | 1014.1 hPa | 0 mm | - | - | - |
| 1777505339 | 27.22° C | 100% | 1014 hPa | 0 mm | - | - | - |
| 1777504618 | 28.33° C | 100% | 1013.7 hPa | 0 mm | - | - | - |
| 1777503897 | 28.89° C | 100% | 1013.5 hPa | 0 mm | - | - | - |
| 1777503177 | 28.89° C | 100% | 1013.4 hPa | 0 mm | - | - | - |
| 1777502456 | 28.33° C | 100% | 1013.8 hPa | 0.25 mm | - | - | - |
| 1777501736 | 28.33° C | 100% | 1013.7 hPa | 0.25 mm | - | - | - |
* Rain latest hour (hover to see other rain measurements)
** Current wind speed in m/s (hover to see current wind gust speed)